Weather History for KRNO - December, 2013

Change the Weather History Date:

Wednesday, December 18, 2013

  Actual Average Record
Temperature  
Mean Temperature 35 °F 35 °F  
Max Temperature 45 °F 45 °F 64 °F (1917)
Min Temperature 24 °F 25 °F -1 °F (1908)
Degree Days  
Heating Degree Days 30 30  
Month to date heating degree days 721 523  
Since 1 July heating degree days 1839 1626  
Cooling Degree Days 0 0  
Month to date cooling degree days 0 0  
Year to date cooling degree days 1174 839  
Moisture  
Dew Point 26 °F    
Average Humidity 73    
Maximum Humidity 92    
Minimum Humidity 53    
Precipitation  
Precipitation 0.00 in 0.04 in 0.85 in (2005)
Month to date precipitation 0.39 0.55  
Year to date precipitation 4.00 6.92  
Snow  
Snow 0.00 in 0.10 in 5.60 in (1978)
Month to date snowfall 3.8 2.1  
Since 1 July snowfall 4.2 5.6  
Snow Depth 1.00 in    
Sea Level Pressure  
Sea Level Pressure 29.97 in    
Wind  
Wind Speed 4 mph (ENE)    
Max Wind Speed 18 mph    
Max Gust Speed 23 mph    
Visibility 8 miles    
Events      
T = Trace of Precipitation, MM = Missing Value Source: NWS Daily Summary

Daily Weather History Graph

Daily Weather History Graph

Search for Another Location

Airport or City:

Trip Planner

Search our weather history database for the weather conditions in past years. The results will help you decide how hot, cold, wet, or windy it might be!

Date:

Astronomy

Dec. 18, 2013 Rise Set
Actual Time 7:14 AM PST 4:37 PM PST
Civil Twilight 6:44 AM PST 5:07 PM PST
Nautical Twilight 6:10 AM PST 5:41 PM PST
Astronomical Twilight 5:37 AM PST 6:14 PM PST
Moon 6:13 PM PST (12/18) 7:57 AM PST (12/18)
Length of Visible Light 10h 23m
Length of Day
9h 22m
Full, 98% of the Moon is Illuminated
Dec 18
Full
Dec 25
Last Quarter
Jan 1
New
Jan 7
First Quarter
Jan 15
Full

Hourly Weather History & Observations

Time (PST) Temp. Windchill Dew Point Humidity Pressure Visibility Wind Dir Wind Speed Gust Speed Precip Events Conditions
12:55 AM 26.1 °F - 24.1 °F 92% 30.23 in 7.0 mi Calm Calm - N/A   Scattered Clouds
1:55 AM 25.0 °F 20.7 °F 21.9 °F 88% 30.21 in 7.0 mi South 3.5 mph - N/A   Scattered Clouds
2:55 AM 26.1 °F - 23.0 °F 88% 30.20 in 7.0 mi Calm Calm - N/A   Mostly Cloudy
3:55 AM 26.1 °F - 23.0 °F 88% 30.18 in 5.0 mi Calm Calm - N/A   Mostly Cloudy
4:55 AM 26.1 °F - 23.0 °F 88% 30.17 in 6.0 mi Calm Calm - N/A   Mostly Cloudy
5:55 AM 25.0 °F - 23.0 °F 92% 30.14 in 6.0 mi Calm Calm - N/A   Mostly Cloudy
6:55 AM 27.0 °F 23.0 °F 24.1 °F 89% 30.12 in 8.0 mi SE 3.5 mph - N/A   Mostly Cloudy
7:55 AM 28.0 °F - 24.1 °F 85% 30.12 in 8.0 mi Calm Calm - N/A   Mostly Cloudy
8:55 AM 28.0 °F 24.2 °F 25.0 °F 88% 30.13 in 8.0 mi SSE 3.5 mph - N/A   Mostly Cloudy
9:55 AM 30.0 °F - 26.1 °F 85% 30.11 in 8.0 mi Calm Calm - N/A   Mostly Cloudy
10:55 AM 30.9 °F - 26.1 °F 82% 30.08 in 8.0 mi Calm Calm - N/A   Mostly Cloudy
11:55 AM 34.0 °F - 27.0 °F 75% 30.01 in 8.0 mi Calm Calm - N/A   Mostly Cloudy
12:55 PM 36.0 °F 33.3 °F 27.0 °F 70% 29.95 in 8.0 mi North 3.5 mph - N/A   Mostly Cloudy
1:55 PM 36.0 °F 33.3 °F 28.9 °F 76% 29.90 in 8.0 mi Variable 3.5 mph - N/A   Mostly Cloudy
2:55 PM 39.0 °F 36.8 °F 28.0 °F 65% 29.87 in 7.0 mi ENE 3.5 mph - N/A   Mostly Cloudy
3:55 PM 37.9 °F 34.4 °F 30.0 °F 73% 29.84 in 7.0 mi South 4.6 mph - N/A   Mostly Cloudy
4:55 PM 39.0 °F 35.7 °F 30.0 °F 70% 29.79 in 8.0 mi Variable 4.6 mph - N/A   Mostly Cloudy
5:55 PM 39.0 °F 33.4 °F 30.0 °F 70% 29.79 in 8.0 mi NE 8.1 mph - N/A   Mostly Cloudy
6:55 PM 39.0 °F 36.8 °F 30.0 °F 70% 29.77 in 9.0 mi Variable 3.5 mph - N/A   Mostly Cloudy
7:55 PM 41.0 °F 39.0 °F 28.9 °F 62% 29.74 in 10.0 mi ESE 3.5 mph - N/A   Mostly Cloudy
8:55 PM 44.1 °F 40.8 °F 28.0 °F 53% 29.73 in 10.0 mi NNE 5.8 mph - N/A   Mostly Cloudy
9:55 PM 41.0 °F 32.8 °F 27.0 °F 57% 29.72 in 10.0 mi NE 16.1 mph - N/A   Mostly Cloudy
10:55 PM 39.0 °F 30.3 °F 27.0 °F 62% 29.73 in 10.0 mi North 16.1 mph - N/A   Overcast
11:55 PM 39.0 °F 34.8 °F 25.0 °F 57% 29.70 in 10.0 mi NNE 5.8 mph - N/A   Overcast